Location: St. Louis
(38.6270°N, 90.1994°W)
Time: 11:24:23
(UTC-06:00)

S-56A Canister/Altair - Pass Details

Date: 07 December 2021
Orbit: 634 x 2499 km, 38.9° (Epoch: 26 January)

Event Time Altitude Azimuth Distance (km) Brightness Sun altitude
Rises 05:40:37 0° 274° (W) 3,434 - -16.1°
Exits shadow 05:45:32 10° 237° (WSW) 2,198 9.5 -15.2°
Reaches altitude 10° 05:45:40 10° 235° (SW) 2,181 9.5 -15.2°
Maximum altitude 05:46:35 11° 224° (SW) 2,105 9.5 -15.0°
Drops below altitude 10° 05:47:29 10° 213° (SSW) 2,100 9.6 -14.8°
Sets 05:51:49 0° 171° (S) 2,906 10.9 -14.0°
